San Jose Del Cabo, Mexico

4:09 PM MST on February 10, 2016 (GMT -0700)
Los Cabos International

Weather History for MMSD - July, 2013

Change the Weather History Date:

Tuesday, July 30, 2013

  Actual Average Record
Temperature  
Mean Temperature 86 °F -  
Max Temperature 95 °F 92 °F 100 °F (2007)
Min Temperature 78 °F 79 °F 73 °F (2000)
Cooling Degree Days 22    
Growing Degree Days 36 (Base 50)    
Moisture  
Dew Point 64 °F    
Average Humidity 45    
Maximum Humidity 55    
Minimum Humidity 32    
Precipitation  
Precipitation 0.00 in - - ()
Sea Level Pressure  
Sea Level Pressure 29.95 in    
Wind  
Wind Speed 6 mph ()    
Max Wind Speed 20 mph    
Max Gust Speed -    
Visibility 15.0 miles    
Events      
Averages and records for this station are not official NWS values.
T = Trace of Precipitation, MM = Missing Value Source: Averaged Metar Reports

Daily Weather History Graph

Daily Weather History Graph

Search for Another Location

Airport or City:

Trip Planner

Search our weather history database for the weather conditions in past years. The results will help you decide how hot, cold, wet, or windy it might be!

Date:

Astronomy

Jul. 30, 2013 Rise Set
Actual Time 6:48 AM MDT 8:01 PM MDT
Civil Twilight 6:24 AM MDT 8:25 PM MDT
Nautical Twilight 5:55 AM MDT 8:54 PM MDT
Astronomical Twilight 5:26 AM MDT 9:23 PM MDT
Moon 1:03 AM MDT (7/30) 2:26 PM MDT (7/30)
Length of Visible Light 14h 01m
Length of Day
13h 12m
Last Quarter, 40% of the Moon is Illuminated
Jul 30
Last Quarter
Aug 6
New
Aug 14
First Quarter
Aug 20
Full
Aug 28
Last Quarter

Hourly Weather History & Observations

Time (MDT) Temp. Heat Index Dew Point Humidity Pressure Visibility Wind Dir Wind Speed Gust Speed Precip Events Conditions
6:13 AM 78.8 °F - 60.8 °F 54% 29.92 in 15.0 mi Calm Calm - N/A   Scattered Clouds
6:52 AM 80.6 °F 81.5 °F 60.8 °F 51% 29.97 in 15.0 mi NW 5.8 mph - N/A   Scattered Clouds
7:53 AM 84.2 °F 85.0 °F 62.6 °F 48% 29.98 in 15.0 mi Calm Calm - N/A   Scattered Clouds
8:41 AM 86.0 °F 86.6 °F 62.6 °F 45% 29.97 in 15.0 mi North 5.8 mph - N/A   Scattered Clouds
9:46 AM 91.4 °F 91.4 °F 60.8 °F 36% 30.00 in 15.0 mi North 5.8 mph - N/A   Mostly Cloudy
10:42 AM 93.2 °F 92.6 °F 59.0 °F 32% 30.00 in 15.0 mi NNE 3.5 mph - N/A   Scattered Clouds
11:43 AM 95.0 °F 95.2 °F 60.8 °F 32% 29.94 in 15.0 mi West 2.3 mph - N/A   Partly Cloudy
12:47 PM 91.4 °F 98.4 °F 71.6 °F 52% 29.97 in 15.0 mi South 12.7 mph - N/A   Partly Cloudy
1:52 PM 89.6 °F 96.2 °F 71.6 °F 55% 29.96 in 15.0 mi SSE 12.7 mph - N/A   Partly Cloudy
2:48 PM 89.6 °F 94.7 °F 69.8 °F 52% 29.91 in 15.0 mi ESE 15.0 mph - N/A   Partly Cloudy
3:42 PM 91.4 °F 96.8 °F 69.8 °F 49% 29.93 in 15.0 mi SSE 13.8 mph - N/A   Partly Cloudy
4:42 PM 89.6 °F 92.2 °F 66.2 °F 46% 29.92 in 15.0 mi SSE 19.6 mph - N/A   Partly Cloudy
5:43 PM 89.6 °F 90.1 °F 62.6 °F 40% 29.88 in 15.0 mi SSE 12.7 mph - N/A   Partly Cloudy
6:40 PM 89.6 °F 90.1 °F 62.6 °F 40% 29.91 in 15.0 mi SE 12.7 mph - N/A   Clear
7:40 PM 86.0 °F 86.6 °F 62.6 °F 45% 29.93 in 15.0 mi SE 13.8 mph - N/A   Clear
8:48 PM 86.0 °F 86.1 °F 60.8 °F 43% 29.92 in 15.0 mi ESE 6.9 mph - N/A   Clear
9:40 PM 86.0 °F 86.6 °F 62.6 °F 45% 29.96 in 15.0 mi South 3.5 mph - N/A   Clear
10:41 PM 84.2 °F 85.0 °F 62.6 °F 48% 29.98 in 15.0 mi Calm Calm - N/A   Clear
11:48 PM 84.2 °F 85.6 °F 64.4 °F 51% 29.94 in 15.0 mi NNW 2.3 mph - N/A   Clear